TimeEST,TemperatureF,Dew PointF,Humidity,Sea Level PressureIn,VisibilityMPH,Wind Direction,Wind SpeedMPH,Gust SpeedMPH,PrecipitationIn,Events,Conditions,WindDirDegrees,DateUTC
12:53 AM,37.0,35.1,93,30.21,8.0,Calm,Calm,-,N/A,,Clear,0,2012-11-09 05:53:00
1:53 AM,37.9,36.0,93,30.20,8.0,Calm,Calm,-,N/A,,Clear,0,2012-11-09 06:53:00
2:53 AM,37.0,35.1,93,30.21,7.0,Calm,Calm,-,N/A,,Clear,0,2012-11-09 07:53:00
3:53 AM,35.1,34.0,96,30.22,5.0,Calm,Calm,-,N/A,,Clear,0,2012-11-09 08:53:00
4:53 AM,34.0,33.1,96,30.22,5.0,Calm,Calm,-,N/A,,Clear,0,2012-11-09 09:53:00
5:53 AM,32.0,30.9,96,30.26,5.0,Calm,Calm,-,N/A,,Clear,0,2012-11-09 10:53:00
6:53 AM,33.1,32.0,96,30.27,5.0,Calm,Calm,-,N/A,,Clear,0,2012-11-09 11:53:00
7:53 AM,36.0,36.0,100,30.30,4.0,Calm,Calm,-,N/A,,Clear,0,2012-11-09 12:53:00
8:53 AM,46.0,39.9,79,30.30,6.0,Calm,Calm,-,N/A,,Haze,0,2012-11-09 13:53:00
9:53 AM,55.9,39.0,53,30.31,9.0,NNW,6.9,-,N/A,,Clear,330,2012-11-09 14:53:00
10:53 AM,60.1,37.9,44,30.31,10.0,NW,9.2,-,N/A,,Clear,310,2012-11-09 15:53:00
11:53 AM,63.0,35.1,35,30.30,10.0,NW,8.1,-,N/A,,Clear,310,2012-11-09 16:53:00
12:53 PM,64.0,32.0,30,30.26,10.0,Calm,Calm,-,N/A,,Clear,0,2012-11-09 17:53:00
1:53 PM,66.0,33.1,29,30.23,10.0,Variable,6.9,-,N/A,,Clear,0,2012-11-09 18:53:00
2:53 PM,66.0,32.0,28,30.22,10.0,West,4.6,-,N/A,,Clear,280,2012-11-09 19:53:00
3:53 PM,66.9,28.0,23,30.22,10.0,WNW,5.8,-,N/A,,Clear,290,2012-11-09 20:53:00
4:53 PM,64.0,30.9,29,30.22,10.0,WSW,3.5,-,N/A,,Clear,240,2012-11-09 21:53:00
5:53 PM,55.0,35.1,47,30.24,10.0,Calm,Calm,-,N/A,,Clear,0,2012-11-09 22:53:00
6:53 PM,50.0,36.0,59,30.26,10.0,Calm,Calm,-,N/A,,Clear,0,2012-11-09 23:53:00
7:53 PM,46.9,37.9,71,30.26,7.0,Calm,Calm,-,N/A,,Clear,0,2012-11-10 00:53:00
8:53 PM,44.1,37.9,79,30.27,10.0,Calm,Calm,-,N/A,,Clear,0,2012-11-10 01:53:00
9:53 PM,42.1,37.9,85,30.27,10.0,Calm,Calm,-,N/A,,Clear,0,2012-11-10 02:53:00
10:53 PM,41.0,39.0,93,30.27,10.0,Calm,Calm,-,N/A,,Clear,0,2012-11-10 03:53:00
11:53 PM,41.0,37.4,87,30.26,10.0,Calm,Calm,-,N/A,,Clear,0,2012-11-10 04:53:00